Simultaneous Nadir Overpasses (SNOs) Predictions

Prediction of SNOs between GOES-16 and AQUA Satellite Orbit:

Table of predicted SNOs for the next 14.0 days since TLE Epoch: 5/8/2021
Index Date Time (GOES-16) GOES-16 Lat,Lon AQUA Lat,Lon Distance(km) Time Diff (sec)
1 05/09/2021 06:23:18 -0.02, -75.17 -0.62, -72.39 317.00 80
2 05/09/2021 18:47:22 0.01, -75.19 -0.52, -77.57 272.08 80
3 05/11/2021 18:32:31 0.02, -75.20 0.12, -74.62 65.97 80
4 05/13/2021 18:20:20 0.02, -75.22 0.76, -71.67 404.22 80
5 05/14/2021 06:44:15 -0.01, -75.22 0.35, -76.82 182.29 80
6 05/16/2021 06:29:24 -0.01, -75.24 -0.29, -73.87 156.37 80
7 05/16/2021 18:53:29 0.01, -75.26 -0.77, -79.07 432.48 80
8 05/18/2021 06:17:13 -0.01, -75.27 -0.94, -70.92 495.46 80
9 05/18/2021 18:38:37 0.01, -75.29 -0.18, -76.10 93.20 80
10 05/20/2021 18:29:06 0.00, -75.32 0.48, -73.15 246.69 80
11 05/21/2021 06:50:21 -0.00, -75.32 0.65, -78.30 339.38 80
